Weather History for La Porte, IN

Change the Weather History Date:

Thursday, April 26, 2012

  Actual Average (KVPZ) Record (KVPZ)
Temperature  
Mean Temperature 43 °F 53 °F  
Max Temperature 51 °F 64 °F 83 °F (2009)
Min Temperature 35 °F 42 °F 32 °F (2013)
Degree Days  
Heating Degree Days 22 12  
Month to date heating degree days 435  
Since 1 July heating degree days 6012  
Cooling Degree Days 0 0  
Month to date cooling degree days 0  
Year to date cooling degree days 0  
Moisture  
Dew Point 36 °F    
Average Humidity 71    
Maximum Humidity 100    
Minimum Humidity 43    
Precipitation  
Precipitation 0.00 in 0.13 in 0.59 in (2011)
Month to date precipitation 2.91  
Year to date precipitation 8.56  
Sea Level Pressure  
Sea Level Pressure 29.88 in    
Wind  
Wind Speed 12 mph ()    
Max Wind Speed 32 mph    
Max Gust Speed 39 mph    
Visibility 8.3 miles    
Events      
T = Trace of Precipitation, MM = Missing Value Source: Averaged Metar Reports

Daily Weather History Graph

Daily Weather History Graph

Search for Another Location

Airport:

Trip Planner

Search our weather history database for the weather conditions in past years. The results will help you decide how hot, cold, wet, or windy it might be!

Date:

Astronomy

Apr. 26, 2012 Rise Set
Actual Time 5:49 AM CDT 7:40 PM CDT
Civil Twilight 5:20 AM CDT 8:09 PM CDT
Nautical Twilight 4:44 AM CDT 8:46 PM CDT
Astronomical Twilight 4:05 AM CDT 9:25 PM CDT
Moon 9:27 AM CDT (4/26) No Moon Set
Length of Visible Light 14h 49m
Length of Day
13h 50m
Waxing Crescent, 24% of the Moon is Illuminated
Apr 26
Waxing Crescent
Apr 29
First Quarter
May 5
Full
May 12
Last Quarter
May 20
New

Hourly Weather History & Observations

Time (CDT) Temp. Windchill Dew Point Humidity Pressure Visibility Wind Dir Wind Speed Gust Speed Precip Events Conditions
12:15 AM 50.0 °F - 44.6 °F 82% 29.63 in 10.0 mi ESE 8.1 mph - N/A   Clear
12:35 AM 50.0 °F - 44.6 °F 82% 29.63 in 7.0 mi ESE 6.9 mph - N/A   Clear
12:55 AM 48.2 °F - 44.6 °F 87% 29.62 in 7.0 mi East 6.9 mph - N/A   Clear
1:15 AM 48.2 °F - 44.6 °F 87% 29.62 in 7.0 mi East 6.9 mph - N/A   Clear
1:35 AM 48.2 °F - 44.6 °F 87% 29.62 in 7.0 mi East 5.8 mph - N/A   Clear
1:55 AM 46.4 °F 43.5 °F 44.6 °F 93% 29.61 in 7.0 mi SE 5.8 mph - N/A   Scattered Clouds
2:35 AM 46.4 °F 44.3 °F 42.8 °F 87% 29.61 in 5.0 mi ESE 4.6 mph - N/A   Clear
2:55 AM 44.6 °F 42.2 °F 42.8 °F 93% 29.60 in 5.0 mi East 4.6 mph - N/A   Clear
3:15 AM 44.6 °F - 42.8 °F 93% 29.61 in 5.0 mi Calm Calm - N/A   Clear
3:35 AM 44.6 °F 41.4 °F 42.8 °F 93% 29.61 in 5.0 mi East 5.8 mph - N/A   Clear
3:55 AM 44.6 °F - 42.8 °F 93% 29.62 in 5.0 mi Calm Calm - N/A   Clear
4:15 AM 44.6 °F 41.4 °F 42.8 °F 93% 29.63 in 4.0 mi NNW 5.8 mph - N/A   Scattered Clouds
4:35 AM 44.6 °F 40.7 °F 42.8 °F 93% 29.64 in 4.0 mi NNW 6.9 mph - N/A   Scattered Clouds
4:55 AM 44.6 °F 43.1 °F 42.8 °F 93% 29.64 in 3.0 mi North 3.5 mph - N/A   Scattered Clouds
5:15 AM 42.8 °F 40.1 °F 42.8 °F 100% 29.65 in 3.0 mi North 4.6 mph - N/A   Clear
5:35 AM 42.8 °F 39.3 °F 42.8 °F 100% 29.66 in 3.0 mi North 5.8 mph - N/A   Scattered Clouds
5:55 AM 44.6 °F 43.1 °F 42.8 °F 93% 29.67 in 4.0 mi North 3.5 mph - N/A   Mostly Cloudy
6:15 AM 46.4 °F - 44.6 °F 93% 29.68 in 4.0 mi Calm Calm - N/A   Mostly Cloudy
6:35 AM 44.6 °F - 42.8 °F 93% 29.69 in 3.0 mi Calm Calm - N/A   Scattered Clouds
6:55 AM 46.4 °F 42.9 °F 44.6 °F 93% 29.71 in 3.0 mi NNW 6.9 mph - N/A   Clear
7:15 AM 50.0 °F - 46.4 °F 87% 29.71 in 4.0 mi NW 18.4 mph 23.0 mph N/A   Scattered Clouds
7:35 AM 46.4 °F 40.1 °F 44.6 °F 93% 29.73 in 5.0 mi NNW 15.0 mph 25.3 mph N/A   Mostly Cloudy
7:55 AM 48.2 °F - 44.6 °F 87% 29.74 in 7.0 mi NNW 12.7 mph 20.7 mph N/A   Scattered Clouds
8:15 AM 50.0 °F - 44.6 °F 82% 29.74 in 10.0 mi North 19.6 mph 23.0 mph N/A   Clear
8:35 AM 50.0 °F - 44.6 °F 82% 29.76 in 10.0 mi NNW 19.6 mph 27.6 mph N/A   Scattered Clouds
8:55 AM 50.0 °F - 44.6 °F 82% 29.77 in 10.0 mi NNW 19.6 mph 27.6 mph N/A   Scattered Clouds
9:15 AM 50.0 °F - 44.6 °F 82% 29.79 in 7.0 mi NNW 20.7 mph - N/A   Mostly Cloudy
9:35 AM 50.0 °F - 44.6 °F 82% 29.80 in 7.0 mi North 19.6 mph 27.6 mph N/A   Overcast
9:55 AM 51.8 °F - 42.8 °F 71% 29.81 in 10.0 mi North 25.3 mph 35.7 mph N/A   Mostly Cloudy
10:15 AM 50.0 °F - 41.0 °F 71% 29.83 in 10.0 mi North 26.5 mph 35.7 mph N/A   Scattered Clouds
10:35 AM 50.0 °F - 41.0 °F 71% 29.84 in 10.0 mi NNW 26.5 mph 32.2 mph N/A   Mostly Cloudy
10:55 AM 48.2 °F - 39.2 °F 71% 29.86 in 10.0 mi North 26.5 mph 34.5 mph N/A   Overcast
11:15 AM 48.2 °F - 39.2 °F 71% 29.87 in 10.0 mi North 26.5 mph 36.8 mph N/A   Overcast
11:35 AM 46.4 °F 36.9 °F 39.2 °F 76% 29.88 in 10.0 mi North 32.2 mph 39.1 mph N/A   Overcast
11:55 AM 46.4 °F 38.3 °F 39.2 °F 76% 29.89 in 10.0 mi North 23.0 mph 36.8 mph N/A   Overcast
12:15 PM 48.2 °F - 39.2 °F 71% 29.89 in 10.0 mi North 21.9 mph 38.0 mph N/A   Mostly Cloudy
12:35 PM 50.0 °F - 39.2 °F 66% 29.91 in 10.0 mi North 21.9 mph 34.5 mph N/A   Mostly Cloudy
12:55 PM 48.2 °F - 37.4 °F 66% 29.93 in 10.0 mi North 28.8 mph 38.0 mph N/A   Mostly Cloudy
1:15 PM 50.0 °F - 35.6 °F 58% 29.93 in 10.0 mi North 26.5 mph 36.8 mph N/A   Scattered Clouds
1:35 PM 50.0 °F - 35.6 °F 58% 29.95 in 10.0 mi North 32.2 mph 38.0 mph N/A   Scattered Clouds
1:55 PM 50.0 °F - 35.6 °F 58% 29.96 in 10.0 mi North 28.8 mph 39.1 mph N/A   Scattered Clouds
2:15 PM 50.0 °F - 37.4 °F 62% 29.96 in 10.0 mi North 20.7 mph 31.1 mph N/A   Scattered Clouds
2:35 PM 50.0 °F - 33.8 °F 54% 29.98 in 10.0 mi North 29.9 mph 39.1 mph N/A   Unknown
2:55 PM 50.0 °F - 33.8 °F 54% 29.99 in 10.0 mi North 24.2 mph 34.5 mph N/A   Clear
3:15 PM 48.2 °F - 32.0 °F 54% 30.00 in 10.0 mi North 20.7 mph 35.7 mph N/A   Clear
3:35 PM 48.2 °F - 32.0 °F 54% 30.00 in 10.0 mi North 28.8 mph 33.4 mph N/A   Clear
3:55 PM 48.2 °F - 30.2 °F 50% 30.01 in 10.0 mi North 21.9 mph 34.5 mph N/A   Clear
4:15 PM 48.2 °F - 32.0 °F 54% 30.02 in 10.0 mi North 24.2 mph 33.4 mph N/A   Clear
4:35 PM 46.4 °F 38.3 °F 30.2 °F 53% 30.03 in 10.0 mi North 23.0 mph 35.7 mph N/A   Clear
4:55 PM 46.4 °F 37.5 °F 28.4 °F 50% 30.03 in 10.0 mi North 27.6 mph 36.8 mph N/A   Clear
5:15 PM 44.6 °F 35.9 °F 28.4 °F 53% 30.04 in 10.0 mi North 23.0 mph 31.1 mph N/A   Clear
5:35 PM 44.6 °F 36.6 °F 24.8 °F 46% 30.04 in 10.0 mi North 19.6 mph 26.5 mph N/A   Clear
5:55 PM 44.6 °F 35.7 °F 23.0 °F 43% 30.04 in 10.0 mi North 24.2 mph 28.8 mph N/A   Clear
6:15 PM 44.6 °F 36.4 °F 26.6 °F 49% 30.06 in 10.0 mi North 20.7 mph 28.8 mph N/A   Clear
6:35 PM 42.8 °F 34.8 °F 24.8 °F 49% 30.06 in 10.0 mi North 17.3 mph 28.8 mph N/A   Clear
6:55 PM 41.0 °F 31.1 °F 23.0 °F 49% 30.07 in 10.0 mi North 23.0 mph 28.8 mph N/A   Clear
7:15 PM 41.0 °F 31.6 °F 26.6 °F 57% 30.08 in 10.0 mi North 20.7 mph 27.6 mph N/A   Clear
7:35 PM 39.2 °F 30.5 °F 26.6 °F 61% 30.09 in 10.0 mi North 16.1 mph 26.5 mph N/A   Clear
7:55 PM 37.4 °F 28.9 °F 28.4 °F 70% 30.10 in 10.0 mi North 13.8 mph 21.9 mph N/A   Clear
8:15 PM 37.4 °F 28.2 °F 28.4 °F 70% 30.11 in 10.0 mi North 16.1 mph 20.7 mph N/A   Clear
8:35 PM 37.4 °F 29.3 °F 26.6 °F 65% 30.12 in 10.0 mi North 12.7 mph 20.7 mph N/A   Scattered Clouds
8:55 PM 37.4 °F 27.8 °F 24.8 °F 60% 30.13 in 10.0 mi North 17.3 mph 23.0 mph N/A   Scattered Clouds
9:15 PM 39.2 °F 30.5 °F 23.0 °F 52% 30.14 in 10.0 mi North 16.1 mph 23.0 mph N/A   Scattered Clouds
9:35 PM 37.4 °F 28.2 °F 23.0 °F 56% 30.15 in 10.0 mi North 16.1 mph 23.0 mph N/A   Scattered Clouds
9:55 PM 39.2 °F 31.2 °F 23.0 °F 52% 30.15 in 10.0 mi North 13.8 mph 21.9 mph N/A   Scattered Clouds
10:15 PM 37.4 °F 29.8 °F 23.0 °F 56% 30.15 in 10.0 mi NNE 11.5 mph 20.7 mph N/A   Clear
10:35 PM 37.4 °F 30.8 °F 23.0 °F 56% 30.16 in 10.0 mi North 9.2 mph 16.1 mph N/A   Clear
10:55 PM 37.4 °F 30.3 °F 24.8 °F 60% 30.15 in 10.0 mi NNE 10.4 mph - N/A   Clear
11:15 PM 37.4 °F 30.8 °F 24.8 °F 60% 30.13 in 10.0 mi NE 9.2 mph - N/A   Clear
11:35 PM 35.6 °F 28.6 °F 26.6 °F 70% 30.13 in 10.0 mi NE 9.2 mph - N/A   Clear
11:55 PM 35.6 °F 28.6 °F 24.8 °F 65% 30.12 in 10.0 mi NNE 9.2 mph - N/A   Clear